• In Hungary
  • List of Countries
  • For 7 days
  • Water Temperature
  • Satellite Maps
  • Weather Map
  • News
  • Weather Widgets
  • user-avatar
    Login

    Hourly Weather Dallas

    Today, 12 December, Tuesday

    Time Temperature Precipitation Wind Pressure Humidity
    00:00 +14°C° 0 mm 7 mps 755 mmHg 28%
    01:00 +12°C° 0 mm 7 mps 756 mmHg 31%
    02:00 +11°C° 0 mm 7 mps 757 mmHg 34%
    03:00 +11°C° 0 mm 7 mps 757 mmHg 37%
    04:00 +10°C° 0 mm 7 mps 758 mmHg 40%
    05:00 +9°C° 0 mm 6 mps 758 mmHg 43%
    06:00 +8°C° 0 mm 6 mps 759 mmHg 47%
    07:00 +7°C° 0 mm 6 mps 759 mmHg 47%
    08:00 +7°C° 0 mm 6 mps 760 mmHg 47%
    09:00 +7°C° 0 mm 6 mps 760 mmHg 47%
    10:00 +8°C° 0 mm 6 mps 760 mmHg 43%
    11:00 +9°C° 0 mm 6 mps 760 mmHg 39%
    12:00 +10°C° 0 mm 5 mps 759 mmHg 36%
    13:00 +12°C° 0 mm 5 mps 759 mmHg 34%
    14:00 +12°C° 0 mm 5 mps 758 mmHg 33%
    15:00 +13°C° 0 mm 4 mps 757 mmHg 32%
    16:00 +12°C° 0 mm 4 mps 757 mmHg 34%
    17:00 +11°C° 0 mm 3 mps 757 mmHg 36%
    18:00 +10°C° 0 mm 2 mps 756 mmHg 39%
    19:00 +10°C° 0 mm 2 mps 756 mmHg 40%
    20:00 +10°C° 0 mm 1 mps 756 mmHg 41%
    21:00 +10°C° 0 mm 1 mps 756 mmHg 42%
    22:00 +10°C° 0 mm 1 mps 756 mmHg 42%
    23:00 +9°C° 0 mm 1 mps 755 mmHg 43%

    Tomorrow, 13 December, Wednesday

    Time Temperature Precipitation Wind Pressure Humidity
    00:00 +8°C° 0 mm 2 mps 755 mmHg 43%
    01:00 +8°C° 0 mm 2 mps 754 mmHg 43%
    02:00 +8°C° 0 mm 2 mps 754 mmHg 44%
    03:00 +8°C° 0 mm 3 mps 754 mmHg 44%
    04:00 +7°C° 0 mm 3 mps 753 mmHg 44%
    05:00 +7°C° 0 mm 3 mps 753 mmHg 43%
    06:00 +7°C° 0 mm 3 mps 752 mmHg 43%
    07:00 +7°C° 0 mm 4 mps 752 mmHg 41%
    08:00 +8°C° 0 mm 4 mps 752 mmHg 39%
    09:00 +9°C° 0 mm 5 mps 752 mmHg 36%
    10:00 +12°C° 0 mm 5 mps 752 mmHg 33%
    11:00 +14°C° 0 mm 6 mps 751 mmHg 29%
    12:00 +17°C° 0 mm 6 mps 751 mmHg 26%
    13:00 +19°C° 0 mm 6 mps 750 mmHg 25%
    14:00 +20°C° 0 mm 6 mps 749 mmHg 23%
    15:00 +21°C° 0 mm 5 mps 748 mmHg 22%
    16:00 +19°C° 0 mm 5 mps 748 mmHg 26%
    17:00 +17°C° 0 mm 4 mps 748 mmHg 30%
    18:00 +16°C° 0 mm 3 mps 748 mmHg 34%
    19:00 +14°C° 0 mm 3 mps 748 mmHg 37%
    20:00 +13°C° 0 mm 3 mps 748 mmHg 41%
    21:00 +12°C° 0 mm 3 mps 748 mmHg 44%
    22:00 +12°C° 0 mm 3 mps 748 mmHg 45%
    23:00 +12°C° 0 mm 2 mps 748 mmHg 46%

    Day after tomorrow, 14 December, Thursday

    Time Temperature Precipitation Wind Pressure Humidity
    00:00 +12°C° 0 mm 2 mps 748 mmHg 48%
    01:00 +10°C° 0 mm 3 mps 748 mmHg 46%
    02:00 +10°C° 0 mm 3 mps 749 mmHg 45%
    03:00 +10°C° 0 mm 3 mps 749 mmHg 43%
    04:00 +8°C° 0 mm 4 mps 749 mmHg 43%
    05:00 +8°C° 0 mm 4 mps 749 mmHg 43%
    06:00 +7°C° 0 mm 5 mps 749 mmHg 43%
    07:00 +8°C° 0 mm 5 mps 750 mmHg 44%
    08:00 +8°C° 0 mm 6 mps 751 mmHg 46%
    09:00 +8°C° 0 mm 6 mps 751 mmHg 48%
    10:00 +9°C° 0 mm 6 mps 752 mmHg 45%
    11:00 +10°C° 0 mm 6 mps 752 mmHg 42%
    12:00 +11°C° 0 mm 6 mps 752 mmHg 39%
    13:00 +11°C° 0 mm 6 mps 752 mmHg 38%
    14:00 +11°C° 0 mm 6 mps 751 mmHg 37%
    15:00 +13°C° 0 mm 6 mps 751 mmHg 36%
    16:00 +11°C° 0 mm 6 mps 751 mmHg 38%
    17:00 +10°C° 0 mm 5 mps 752 mmHg 40%
    18:00 +9°C° 0 mm 5 mps 752 mmHg 43%
    19:00 +8°C° 0 mm 4 mps 753 mmHg 44%
    20:00 +9°C° 0 mm 3 mps 753 mmHg 45%
    21:00 +8°C° 0 mm 3 mps 754 mmHg 47%
    22:00 +8°C° 0 mm 2 mps 754 mmHg 48%
    23:00 +7°C° 0 mm 2 mps 754 mmHg 49%

    15 December, Friday

    Time Temperature Precipitation Wind Pressure Humidity
    00:00 +8°C° 0 mm 1 mps 755 mmHg 50%
    01:00 +7°C° 0 mm 2 mps 755 mmHg 51%
    02:00 +7°C° 0 mm 2 mps 755 mmHg 52%
    03:00 +7°C° 0 mm 2 mps 755 mmHg 53%
    04:00 +7°C° 0 mm 3 mps 755 mmHg 53%
    05:00 +5°C° 0 mm 4 mps 755 mmHg 54%
    06:00 +5°C° 0 mm 4 mps 755 mmHg 55%
    07:00 +6°C° 0 mm 5 mps 756 mmHg 51%
    08:00 +5°C° 0 mm 6 mps 757 mmHg 47%
    09:00 +7°C° 0 mm 6 mps 757 mmHg 43%
    10:00 +8°C° 0 mm 6 mps 757 mmHg 40%
    11:00 +9°C° 0 mm 6 mps 757 mmHg 36%
    12:00 +10°C° 0 mm 6 mps 757 mmHg 33%
    13:00 +10°C° 0 mm 6 mps 756 mmHg 32%
    14:00 +12°C° 0 mm 5 mps 756 mmHg 30%
    15:00 +12°C° 0 mm 5 mps 755 mmHg 29%
    16:00 +11°C° 0 mm 4 mps 755 mmHg 32%
    17:00 +10°C° 0 mm 2 mps 755 mmHg 34%
    18:00 +10°C° 0 mm 1 mps 755 mmHg 36%
    19:00 +10°C° 0 mm 1 mps 755 mmHg 37%
    20:00 +9°C° 0 mm 2 mps 755 mmHg 37%
    21:00 +8°C° 0 mm 3 mps 755 mmHg 38%
    22:00 +8°C° 0 mm 3 mps 755 mmHg 39%
    23:00 +7°C° 0 mm 4 mps 755 mmHg 40%

    16 December, Saturday

    Time Temperature Precipitation Wind Pressure Humidity
    00:00 +6°C° 0 mm 4 mps 754 mmHg 42%
    01:00 +6°C° 0 mm 4 mps 754 mmHg 43%
    02:00 +6°C° 0 mm 5 mps 753 mmHg 43%
    03:00 +6°C° 0 mm 5 mps 753 mmHg 44%
    04:00 +6°C° 0 mm 5 mps 753 mmHg 45%
    05:00 +6°C° 0 mm 5 mps 752 mmHg 46%
    06:00 +6°C° 0 mm 5 mps 752 mmHg 47%
    07:00 +7°C° 0 mm 6 mps 752 mmHg 46%
    08:00 +6°C° 0 mm 7 mps 752 mmHg 45%
    09:00 +7°C° 0 mm 8 mps 752 mmHg 44%
    10:00 +10°C° 0 mm 8 mps 752 mmHg 40%
    11:00 +12°C° 0 mm 9 mps 751 mmHg 37%
    12:00 +15°C° 0 mm 9 mps 751 mmHg 33%
    13:00 +16°C° 0 mm 9 mps 750 mmHg 33%
    14:00 +17°C° 0 mm 9 mps 749 mmHg 32%
    15:00 +17°C° 0 mm 9 mps 748 mmHg 31%
    16:00 +16°C° 0 mm 9 mps 748 mmHg 34%
    17:00 +15°C° 0 mm 8 mps 748 mmHg 37%
    18:00 +14°C° 0 mm 7 mps 748 mmHg 40%
    19:00 +12°C° 0 mm 7 mps 749 mmHg 43%
    20:00 +11°C° 0 mm 6 mps 749 mmHg 46%
    21:00 +11°C° 0 mm 6 mps 749 mmHg 49%
    22:00 +10°C° 0 mm 6 mps 750 mmHg 53%
    23:00 +10°C° 0 mm 5 mps 750 mmHg 57%

    17 December, Sunday

    Time Temperature Precipitation Wind Pressure Humidity
    00:00 +10°C° 0 mm 5 mps 750 mmHg 61%
    01:00 +10°C° 0 mm 5 mps 750 mmHg 66%
    02:00 +10°C° 0 mm 5 mps 750 mmHg 72%
    03:00 +11°C° 0 mm 4 mps 749 mmHg 77%
    04:00 +11°C° 0 mm 4 mps 749 mmHg 79%
    05:00 +11°C° 0 mm 4 mps 749 mmHg 81%
    06:00 +12°C° 0 mm 3 mps 749 mmHg 84%
    07:00 +12°C° 0.1 mm 3 mps 750 mmHg 85%
    08:00 +12°C° 0.1 mm 3 mps 750 mmHg 86%
    09:00 +13°C° 0.1 mm 3 mps 751 mmHg 87%
    10:00 +14°C° 0.3 mm 2 mps 751 mmHg 88%
    11:00 +14°C° 0.3 mm 2 mps 750 mmHg 89%
    12:00 +15°C° 0.3 mm 2 mps 750 mmHg 90%
    13:00 +15°C° 0.4 mm 2 mps 750 mmHg 90%
    14:00 +15°C° 0.4 mm 1 mps 750 mmHg 90%
    15:00 +15°C° 0.4 mm 1 mps 749 mmHg 91%
    16:00 +15°C° 0.9 mm 1 mps 750 mmHg 92%
    17:00 +15°C° 0.9 mm 1 mps 750 mmHg 94%
    18:00 +15°C° 0.9 mm 1 mps 750 mmHg 96%
    19:00 +15°C° 1.5 mm 1 mps 750 mmHg 96%
    20:00 +15°C° 1.5 mm 1 mps 751 mmHg 96%
    21:00 +15°C° 1.5 mm 1 mps 751 mmHg 97%
    22:00 +15°C° 1.1 mm 1 mps 751 mmHg 96%
    23:00 +15°C° 1.1 mm 2 mps 751 mmHg 96%
    Show more